[[{"header":{"parameterUnit":"m.s-1","parameterCategory":1,"la1":30.2992,"la2":30.254,"lo1":-89.0895,"lo2":-89.0443,"dy":0.0025,"dx":0.0025,"nx":19,"ny":19,"refTime":"2026-04-22T09:00:00:Z","depth":0,"parameterNumber":2,"parameterNumberName":"U-component_of_WINDS"},"data":[0,0,0,-2.4985,-2.4987,-2.5087,-2.5088,-2.5204,-2.5205,0,0,0,0,0,0,0,0,0,0,0,-2.4949,-2.495,-2.4985,-2.4987,-2.5087,-2.5088,-2.5204,-2.5205,0,0,0,0,0,0,0,0,0,0,0,-2.4949,-2.495,-2.4951,-2.4988,-2.5087,-2.5088,-2.5203,-2.5132,0,0,0,0,0,0,0,0,0,0,-2.5037,-2.4998,-2.495,-2.4951,-2.4988,-2.5087,-2.5088,-2.5129,-2.5136,-2.5154,0,-2.5169,0,-2.5189,-2.5212,-2.5212,0,0,0,-2.4991,-2.4992,-2.5024,-2.4951,-2.4989,-2.5087,-2.5043,-2.5133,-2.5142,-2.5164,-2.5171,-2.5175,-2.5191,-2.5213,-2.5213,-2.5303,-2.5303,0,0,-2.4986,-2.4964,-2.5018,-2.503,-2.5015,-2.504,-2.5046,-2.5138,-2.5144,-2.5171,-2.5178,-2.5193,-2.5213,-2.5214,-2.5303,-2.5303,0,0,0,-2.4967,-2.496,-2.499,-2.5024,-2.5043,-2.5043,-2.505,-2.514,-2.5151,-2.518,-2.5194,-2.5214,-2.5215,-2.5303,-2.5303,-2.5293,0,0,0,-2.4964,-2.4949,-2.4988,-2.4975,-2.5042,-2.5093,-2.5049,-2.5145,-2.5156,-2.5193,-2.5214,-2.5216,-2.5303,-2.5303,-2.5293,-2.5291,0,0,0,-2.4945,-2.4947,-2.4959,-2.4974,-2.5016,-2.5092,-2.5109,-2.5148,-2.5165,-2.5212,-2.5217,-2.5303,-2.5303,-2.5292,-2.5291,-2.5308,0,0,0,-2.4918,-2.4948,-2.4959,-2.4999,-2.5015,-2.5086,-2.5109,-2.5162,-2.5202,-2.5214,-2.5303,-2.5303,-2.5292,-2.5291,-2.5307,-2.5317,-2.532,0,0,-2.4944,-2.4951,-2.4976,-2.4988,-2.5051,-2.5072,-2.5133,-2.519,-2.5214,-2.5272,-2.5274,-2.5293,-2.5291,-2.5308,-2.5343,-2.5345,0,0,0,-2.4977,-2.4994,-2.5016,-2.5053,-2.5098,-2.5136,-2.5186,-2.5207,-2.5257,-2.524,-2.5305,-2.5304,-2.5315,-2.5321,-2.5322,-2.5332,-2.5305,-2.5305,-2.5305,-2.4981,-2.5012,-2.5055,-2.5097,-2.5133,-2.5185,-2.5216,-2.5253,-2.5273,-2.5288,-2.5305,-2.5323,-2.5328,-2.533,-2.534,-2.5314,-2.5313,-2.5313,-2.5313,-2.5021,-2.5051,-2.5077,-2.5129,-2.516,-2.5204,-2.5255,-2.5267,-2.5311,-2.5312,-2.5323,-2.532,-2.5331,-2.5341,-2.5313,-2.5313,-2.5313,-2.5313,-2.5313,-2.5026,-2.5046,-2.5072,-2.5129,-2.517,-2.5212,-2.5253,-2.5281,-2.5307,-2.5318,-2.5338,-2.5338,-2.5341,-2.5326,-2.5326,-2.5326,-2.5326,-2.5326,-2.5326,-2.502,-2.505,-2.5083,-2.5133,-2.5161,-2.5201,-2.5254,-2.5281,-2.5319,-2.5336,-2.5336,-2.5353,-2.5327,-2.5319,-2.5327,-2.5327,-2.5327,-2.5327,-2.5327,-2.5047,-2.5046,-2.5095,-2.5123,-2.5185,-2.5223,-2.5259,-2.5313,-2.534,-2.5359,-2.5375,-2.5352,-2.536,-2.5359,-2.5352,-2.5369,-2.5369,-2.5369,-2.5369,-2.505,-2.5058,-2.5115,-2.5158,-2.5203,-2.524,-2.5294,-2.5335,-2.5378,-2.5396,-2.5398,-2.5392,-2.539,-2.54,-2.5398,-2.5392,-2.5419,-2.5419,-2.5419,-2.5068,-2.5082,-2.5122,-2.5165,-2.5216,-2.5258,-2.531,-2.5357,-2.5405,-2.5421,-2.5411,-2.5409,-2.54,-2.5396,-2.541,-2.5406,-2.5396,0,0]},{"header":{"parameterUnit":"m.s-1","parameterCategory":1,"la1":30.2992,"la2":30.254,"lo1":-89.0895,"lo2":-89.0443,"dy":0.0025,"dx":0.0025,"nx":19,"ny":19,"refTime":"2026-04-22T09:00:00:Z","depth":0,"parameterNumber":3,"parameterNumberName":"V-component_of_WINDS"},"data":[0,0,0,4.2227,4.2231,4.2422,4.2423,4.2659,4.2661,0,0,0,0,0,0,0,0,0,0,0,4.2168,4.2169,4.2227,4.2231,4.2422,4.2423,4.2658,4.2661,0,0,0,0,0,0,0,0,0,0,0,4.2167,4.2169,4.2171,4.2232,4.2422,4.2423,4.2658,4.2516,0,0,0,0,0,0,0,0,0,0,4.2332,4.2275,4.2168,4.2171,4.2233,4.2422,4.2423,4.251,4.2525,4.2569,0,4.261,0,4.2639,4.2676,4.2677,0,0,0,4.2233,4.2262,4.2316,4.2171,4.2235,4.2421,4.2336,4.2518,4.2536,4.259,4.2614,4.2623,4.2643,4.2678,4.2679,4.2935,4.2936,0,0,4.2222,4.22,4.2304,4.2328,4.23,4.233,4.2342,4.2529,4.2552,4.2615,4.2628,4.2647,4.2679,4.2681,4.2934,4.2935,0,0,0,4.2191,4.2192,4.2242,4.2318,4.2353,4.2336,4.235,4.2544,4.2562,4.2631,4.265,4.2681,4.2684,4.2933,4.2935,4.2969,0,0,0,4.2185,4.2174,4.2238,4.2226,4.2349,4.2451,4.236,4.2549,4.2571,4.2649,4.2681,4.2686,4.2932,4.2934,4.2965,4.2988,0,0,0,4.2156,4.2171,4.2198,4.2224,4.2306,4.2449,4.2478,4.2555,4.2583,4.2677,4.2686,4.2931,4.2933,4.2962,4.2983,4.3048,0,0,0,4.2118,4.2225,4.2198,4.2325,4.2304,4.247,4.2477,4.2601,4.2686,4.2682,4.2932,4.2934,4.2961,4.298,4.3045,4.3099,4.312,0,0,4.224,4.2239,4.2315,4.2297,4.2461,4.2442,4.2612,4.271,4.2738,4.2867,4.2874,4.2966,4.2983,4.3048,4.3246,4.3262,0,0,0,4.2346,4.24,4.2449,4.253,4.2609,4.2678,4.2753,4.2789,4.29,4.2801,4.3009,4.3019,4.3058,4.3085,4.3099,4.3133,4.2946,4.2946,4.2946,4.2485,4.2518,4.2645,4.2701,4.2779,4.2856,4.2921,4.2983,4.2992,4.304,4.3078,4.3195,4.3225,4.3236,4.3271,4.311,4.3111,4.3111,4.3111,4.2666,4.2747,4.2758,4.2885,4.2918,4.3024,4.3102,4.3104,4.3207,4.3169,4.3205,4.3159,4.3253,4.3286,4.3114,4.3113,4.3113,4.3113,4.3112,4.276,4.2805,4.2848,4.2969,4.3058,4.3109,4.3208,4.3234,4.3259,4.3295,4.3337,4.3336,4.3338,4.3313,4.3314,4.3314,4.3315,4.3315,4.3315,4.284,4.2888,4.2969,4.3062,4.3117,4.3193,4.3271,4.3326,4.3392,4.3403,4.3404,4.3406,4.3257,4.3218,4.3321,4.332,4.3319,4.3319,4.3318,4.3009,4.2975,4.31,4.3155,4.3266,4.3352,4.3385,4.3493,4.3542,4.3589,4.3585,4.3471,4.3471,4.346,4.3428,4.3579,4.3579,4.3579,4.3579,4.3087,4.309,4.3224,4.331,4.3399,4.3441,4.3579,4.364,4.3698,4.373,4.3712,4.3672,4.366,4.3667,4.3651,4.3622,4.3819,4.3819,4.3819,4.3192,4.3205,4.3319,4.3376,4.3465,4.354,4.367,4.3768,4.3826,4.383,4.3755,4.3745,4.3681,4.3659,4.3658,4.3634,4.358,0,0]}]]